N0ZMJ-3 Weather Reports


Display with metric or nautical units.
time (UTC)temp
F
wind
direction
speed
MPH
gust
MPH
rain 1hr
in
rain 24hr
in
rain mn
in
humidity
%
barometer
mb
20260831033558 76 257 0.0 3.0 0.00 0.00 0.00 79 1006.3
20260831033427 77 226 0.0 5.0 0.00 0.00 0.00 79 1006.3
20260831032859 77 226 1.0 5.0 0.00 0.00 0.00 79 1006.1
20260831032427 77 228 1.0 4.0 0.00 0.00 0.00 79 1006.2
20260831032202 77 228 1.0 4.0 0.00 0.00 0.00 79 1006.2
20260831031501 77 222 0.0 2.0 0.00 0.00 0.00 78 1006.1
20260831031429 77 222 0.0 2.0 0.00 0.00 0.00 78 1006.1
20260831030800 77 222 0.0 1.0 0.00 0.00 0.00 78 1006.1
20260831030429 78 222 0.0 1.0 0.00 0.00 0.00 77 1006.0
20260831030100 78 222 0.0 1.0 0.00 0.00 0.00 77 1006.0
20260831025427 78 222 0.0 0.0 0.00 0.00 0.00 76 1005.8
20260831025405 78 222 0.0 0.0 0.00 0.00 0.00 76 1005.8
20260831024701 78 222 0.0 1.0 0.00 0.00 0.00 76 1006.0
20260831024428 78 221 0.0 1.0 0.00 0.00 0.00 76 1005.8
20260831024001 79 222 0.0 2.0 0.00 0.00 0.00 76 1005.8
20260831023428 79 221 0.0 3.0 0.00 0.00 0.00 76 1005.7
20260831023305 79 221 0.0 3.0 0.00 0.00 0.00 76 1005.7
20260831022559 79 221 1.0 3.0 0.00 0.00 0.00 75 1005.6
20260831022428 79 221 0.0 3.0 0.00 0.00 0.00 76 1005.5
20260831021901 79 221 1.0 4.0 0.00 0.00 0.00 76 1005.4
20260831021428 79 221 1.0 4.0 0.00 0.00 0.00 76 1005.2
20260831021159 79 221 1.0 4.0 0.00 0.00 0.00 76 1005.2
20260831020504 79 220 1.0 2.0 0.00 0.00 0.00 76 1005.2
20260831020428 79 220 1.0 2.0 0.00 0.00 0.00 76 1005.2
20260831015801 80 220 0.0 1.0 0.00 0.00 0.00 76 1005.1
20260831015427 80 221 0.0 2.0 0.00 0.00 0.00 76 1005.0
20260831015100 80 221 0.0 2.0 0.00 0.00 0.00 76 1005.0
20260831014427 81 220 0.0 2.0 0.00 0.00 0.00 76 1005.0
20260831014359 81 220 0.0 2.0 0.00 0.00 0.00 76 1005.0
20260831013659 82 221 0.0 1.0 0.00 0.00 0.00 76 1004.9
20260831013427 82 220 0.0 2.0 0.00 0.00 0.00 77 1004.9
20260831012958 82 220 0.0 2.0 0.00 0.00 0.00 79 1004.9
20260831012428 83 220 0.0 1.0 0.00 0.00 0.00 81 1005.0
20260831012259 83 220 0.0 1.0 0.00 0.00 0.00 81 1005.0
20260831011559 83 220 0.0 3.0 0.00 0.00 0.00 84 1004.9
20260831011428 84 220 0.0 3.0 0.00 0.00 0.00 84 1004.8
20260831010859 84 220 0.0 1.0 0.00 0.00 0.00 85 1004.9
20260831010428 84 221 0.0 2.0 0.00 0.00 0.00 84 1004.9
20260831010201 84 221 0.0 2.0 0.00 0.00 0.00 84 1004.9
20260831005459 85 221 0.0 0.0 0.00 0.00 0.00 83 1004.9
20260831005428 85 221 0.0 0.0 0.00 0.00 0.00 83 1004.9
20260831004427 85 221 0.0 0.0 0.00 0.00 0.00 80 1005.0
20260831004102 85 221 0.0 0.0 0.00 0.00 0.00 80 1005.0
20260831003427 86 220 0.0 0.0 0.00 0.00 0.00 77 1005.1
20260831003359 86 220 0.0 0.0 0.00 0.00 0.00 77 1005.1
20260831002701 86 221 0.0 0.0 0.00 0.00 0.00 77 1005.2
20260831002427 87 221 0.0 0.0 0.00 0.00 0.00 76 1005.1
20260831002001 87 221 0.0 1.0 0.00 0.00 0.00 75 1005.1
20260831001427 87 220 0.0 1.0 0.00 0.00 0.00 75 1005.3
20260831001258 87 220 0.0 1.0 0.00 0.00 0.00 75 1005.3
20260831000558 87 221 0.0 1.0 0.00 0.00 0.00 73 1005.1
20260831000427 87 220 0.0 1.0 0.00 0.00 0.00 72 1005.1
20260830235900 88 220 0.0 2.0 0.00 0.00 0.00 73 1005.2
20260830235429 88 220 0.0 2.0 0.00 0.00 0.00 73 1005.1
20260830235201 88 220 0.0 2.0 0.00 0.00 0.00 73 1005.1
20260830234501 88 220 1.0 2.0 0.00 0.00 0.00 70 1005.1
20260830234429 88 220 1.0 2.0 0.00 0.00 0.00 70 1005.1
20260830233803 88 220 0.0 1.0 0.00 0.00 0.00 69 1004.9
20260830233428 88 220 0.0 0.0 0.00 0.00 0.00 68 1005.0
20260830233101 88 220 0.0 0.0 0.00 0.00 0.00 68 1005.0
20260830232427 89 221 0.0 0.0 0.00 0.00 0.00 67 1004.9
20260830232359 89 221 0.0 0.0 0.00 0.00 0.00 67 1004.9
20260830231659 89 221 0.0 0.0 0.00 0.00 0.00 67 1004.8
20260830231427 89 221 0.0 0.0 0.00 0.00 0.00 69 1004.9
20260830230959 89 220 0.0 0.0 0.00 0.00 0.00 68 1004.8
20260830230427 89 221 0.0 1.0 0.00 0.00 0.00 66 1004.6
20260830230301 89 221 0.0 1.0 0.00 0.00 0.00 66 1004.6
20260830225559 89 220 0.0 1.0 0.00 0.00 0.00 66 1004.8
20260830225427 90 220 0.0 1.0 0.00 0.00 0.00 66 1004.8
20260830224900 90 219 0.0 2.0 0.00 0.00 0.00 67 1004.7
20260830224429 90 219 0.0 3.0 0.00 0.00 0.00 66 1004.7
20260830224202 90 219 0.0 3.0 0.00 0.00 0.00 66 1004.7
20260830223500 91 306 0.0 3.0 0.00 0.00 0.00 64 1004.6
20260830223429 91 306 0.0 3.0 0.00 0.00 0.00 64 1004.6
20260830222808 91 213 1.0 4.0 0.00 0.00 0.00 63 1004.6
20260830222428 92 216 1.0 6.0 0.00 0.00 0.00 62 1004.7
20260830222103 92 216 1.0 6.0 0.00 0.00 0.00 62 1004.7
20260830221428 93 229 2.0 4.0 0.00 0.00 0.00 58 1004.7
20260830221402 93 229 2.0 4.0 0.00 0.00 0.00 58 1004.7
20260830220700 93 217 2.0 4.0 0.00 0.00 0.00 56 1004.6
20260830220428 94 214 1.0 8.0 0.00 0.00 0.00 53 1004.5
20260830220001 93 219 3.0 8.0 0.00 0.00 0.00 51 1004.4
20260830215428 93 217 2.0 7.0 0.00 0.00 0.00 53 1004.5
20260830215306 93 217 2.0 7.0 0.00 0.00 0.00 53 1004.5
20260830214600 93 228 2.0 6.0 0.00 0.00 0.00 53 1004.5
20260830214428 93 235 2.0 6.0 0.00 0.00 0.00 54 1004.6
20260830213900 93 227 4.0 6.0 0.00 0.00 0.00 55 1004.6
20260830213428 93 208 1.0 6.0 0.00 0.00 0.00 56 1004.6
20260830213159 93 208 1.0 6.0 0.00 0.00 0.00 56 1004.6
20260830212504 93 205 2.0 4.0 0.00 0.00 0.00 56 1004.7
20260830212428 93 205 2.0 4.0 0.00 0.00 0.00 56 1004.7
20260830211759 93 28 1.0 4.0 0.00 0.00 0.00 58 1004.7
20260830211428 92 160 1.0 5.0 0.00 0.00 0.00 57 1004.8
20260830211104 92 160 1.0 5.0 0.00 0.00 0.00 57 1004.8
20260830210427 92 151 1.0 5.0 0.00 0.00 0.00 59 1004.7
20260830210359 92 151 1.0 5.0 0.00 0.00 0.00 59 1004.7
20260830205701 92 206 2.0 5.0 0.00 0.00 0.00 57 1004.7
20260830205427 92 168 3.0 5.0 0.00 0.00 0.00 56 1004.6
20260830205004 92 250 1.0 5.0 0.00 0.00 0.00 59 1004.8
20260830204427 92 228 1.0 7.0 0.00 0.00 0.00 57 1004.8
20260830204304 92 228 1.0 7.0 0.00 0.00 0.00 57 1004.8
20260830203600 92 231 4.0 8.0 0.00 0.00 0.00 57 1004.9
20260830203427 92 227 3.0 8.0 0.00 0.00 0.00 57 1005.0
20260830202858 92 232 1.0 6.0 0.00 0.00 0.00 59 1005.1
20260830202429 91 229 1.0 7.0 0.00 0.00 0.00 59 1005.1
20260830202200 91 229 1.0 7.0 0.00 0.00 0.00 59 1005.1
20260830201502 91 224 4.0 8.0 0.00 0.00 0.00 58 1005.0
20260830201429 91 224 4.0 8.0 0.00 0.00 0.00 58 1005.0
20260830200801 91 192 1.0 11.0 0.00 0.00 0.00 57 1005.1
20260830200428 91 218 4.0 11.0 0.00 0.00 0.00 60 1005.3
20260830195428 91 235 2.0 9.0 0.00 0.00 0.00 59 1005.2
20260830195400 91 235 2.0 9.0 0.00 0.00 0.00 59 1005.2
20260830194704 91 223 2.0 9.0 0.00 0.00 0.00 58 1005.3
20260830194428 91 158 3.0 6.0 0.00 0.00 0.00 57 1005.2
20260830194005 92 171 2.0 5.0 0.00 0.00 0.00 59 1005.5
20260830193428 91 215 2.0 6.0 0.00 0.00 0.00 59 1005.5
20260830193300 91 215 2.0 6.0 0.00 0.00 0.00 59 1005.5
20260830192559 91 167 2.0 10.0 0.00 0.00 0.00 59 1005.6
20260830192428 91 226 2.0 10.0 0.00 0.00 0.00 60 1005.5
20260830191903 91 198 2.0 5.0 0.00 0.00 0.00 65 1005.5
20260830191428 91 214 1.0 5.0 0.00 0.00 0.00 66 1005.6
20260830190501 90 216 3.0 6.0 0.00 0.00 0.00 72 1005.6
20260830190428 90 216 3.0 6.0 0.00 0.00 0.00 72 1005.6
20260830185759 90 190 1.0 4.0 0.00 0.00 0.00 71 1005.6
20260830185427 90 199 2.0 6.0 0.00 0.00 0.00 71 1005.6
20260830185059 90 199 2.0 6.0 0.00 0.00 0.00 71 1005.6
20260830184427 89 236 1.0 6.0 0.00 0.00 0.00 72 1005.5
20260830184359 89 236 1.0 6.0 0.00 0.00 0.00 72 1005.5
20260830183659 89 235 2.0 7.0 0.00 0.00 0.00 71 1005.5
20260830183427 89 255 2.0 7.0 0.00 0.00 0.00 73 1005.6
20260830183000 89 249 1.0 5.0 0.00 0.00 0.00 72 1005.6
20260830182427 89 235 1.0 5.0 0.00 0.00 0.00 73 1005.6
20260830182301 89 235 1.0 5.0 0.00 0.00 0.00 73 1005.6
20260830181558 88 232 1.0 6.0 0.00 0.00 0.00 72 1005.6
20260830181427 88 259 2.0 6.0 0.00 0.00 0.00 72 1005.7
20260830180901 88 226 3.0 7.0 0.00 0.00 0.00 73 1005.8
20260830180427 88 232 2.0 7.0 0.00 0.00 0.00 75 1005.8
20260830180159 88 232 2.0 7.0 0.00 0.00 0.00 75 1005.8
20260830175502 88 251 2.0 5.0 0.00 0.00 0.00 76 1005.8
20260830175429 88 251 2.0 5.0 0.00 0.00 0.00 76 1005.8
20260830174801 87 243 2.0 5.0 0.00 0.00 0.00 76 1005.8
20260830174429 87 103 1.0 5.0 0.00 0.00 0.00 77 1006.0
20260830174107 87 103 1.0 5.0 0.00 0.00 0.00 77 1006.0
20260830173429 87 208 0.0 6.0 0.00 0.00 0.00 80 1005.9
20260830173401 87 208 0.0 6.0 0.00 0.00 0.00 80 1005.9
20260830172701 86 159 2.0 6.0 0.00 0.00 0.00 79 1005.9
20260830172428 86 231 2.0 5.0 0.00 0.00 0.00 80 1005.8
20260830172000 86 169 1.0 4.0 0.00 0.00 0.00 84 1005.9
20260830171428 86 135 1.0 4.0 0.00 0.00 0.00 84 1005.9
20260830171301 86 135 1.0 4.0 0.00 0.00 0.00 84 1005.9
20260830170600 86 140 0.0 5.0 0.00 0.00 0.00 85 1006.0
20260830170428 85 112 2.0 6.0 0.00 0.00 0.00 85 1006.0
20260830165859 85 94 1.0 6.0 0.00 0.00 0.00 85 1006.1
20260830165428 85 98 3.0 5.0 0.00 0.00 0.00 86 1006.0
20260830165200 85 98 3.0 5.0 0.00 0.00 0.00 86 1006.0
20260830164459 84 106 2.0 5.0 0.00 0.00 0.00 88 1006.1
20260830164428 84 106 2.0 5.0 0.00 0.00 0.00 88 1006.1
20260830163759 84 100 1.0 5.0 0.00 0.00 0.00 88 1006.1
20260830163428 84 100 1.0 5.0 0.00 0.00 0.00 89 1006.0
20260830163059 84 100 1.0 5.0 0.00 0.00 0.00 89 1006.0
20260830162428 83 174 1.0 4.0 0.00 0.00 0.00 90 1005.9
20260830162401 83 174 1.0 4.0 0.00 0.00 0.00 90 1005.9
20260830161700 83 106 1.0 4.0 0.00 0.00 0.00 90 1006.0
20260830161428 83 244 1.0 4.0 0.00 0.00 0.00 91 1006.0
20260830161002 82 112 1.0 6.0 0.00 0.00 0.00 91 1005.9
20260830160428 82 118 2.0 6.0 0.00 0.00 0.00 91 1006.0
20260830160307 82 118 2.0 6.0 0.00 0.00 0.00 91 1006.0
20260830155559 82 144 1.0 6.0 0.00 0.00 0.00 92 1006.0
20260830155428 82 117 3.0 7.0 0.00 0.00 0.00 92 1006.1
20260830154859 81 90 2.0 7.0 0.00 0.00 0.00 92 1006.0
20260830154428 81 138 2.0 5.0 0.00 0.00 0.00 93 1006.1
20260830154159 81 138 2.0 5.0 0.00 0.00 0.00 93 1006.1
20260830153459 81 138 2.0 6.0 0.00 0.00 0.00 94 1006.1
20260830153428 81 138 2.0 6.0 0.00 0.00 0.00 94 1006.1
20260830152800 80 171 2.0 6.0 0.00 0.00 0.00 95 1006.1
20260830152427 80 164 1.0 5.0 0.00 0.00 0.00 95 1006.0
20260830152100 80 164 1.0 5.0 0.00 0.00 0.00 95 1006.0
20260830151427 79 154 1.0 4.0 0.00 0.00 0.00 96 1005.9
20260830151359 79 154 1.0 4.0 0.00 0.00 0.00 96 1005.9
20260830150702 79 132 1.0 5.0 0.00 0.00 0.00 98 1006.2
20260830150428 78 144 2.0 6.0 0.00 0.00 0.00 98 1006.0
20260830150000 77 91 2.0 7.0 0.00 0.00 0.00 99 1006.0
20260830145428 77 83 4.0 7.0 0.00 0.00 0.00 98 1006.0
20260830145306 77 83 4.0 7.0 0.00 0.00 0.00 98 1006.0
20260830144559 77 108 2.0 7.0 0.00 0.00 0.00 99 1006.2
20260830144428 77 105 1.0 7.0 0.00 0.00 0.00 100 1006.1
20260830143900 76 148 2.0 3.0 0.00 0.00 0.00 100 1006.2
20260830143428 75 90 0.0 3.0 0.00 0.00 0.00 100 1006.2
20260830143159 75 90 0.0 3.0 0.00 0.00 0.00 100 1006.2
20260830142503 74 90 0.0 4.0 0.00 0.00 0.00 100 1006.3
20260830142428 74 90 0.0 4.0 0.00 0.00 0.00 100 1006.3
20260830141759 74 90 1.0 5.0 0.00 0.00 0.00 100 1006.2
20260830141428 74 90 2.0 6.0 0.00 0.00 0.00 100 1006.2
20260830141103 74 90 2.0 6.0 0.00 0.00 0.00 100 1006.2
20260830140427 73 83 3.0 5.0 0.00 0.00 0.00 100 1006.2
20260830140401 73 83 3.0 5.0 0.00 0.00 0.00 100 1006.2
20260830135659 72 108 2.0 4.0 0.00 0.00 0.00 100 1006.2
20260830135427 72 108 1.0 4.0 0.00 0.00 0.00 100 1006.3
20260830135000 71 108 0.0 4.0 0.00 0.00 0.00 100 1006.2
20260830134427 71 108 1.0 4.0 0.00 0.00 0.00 100 1006.2
20260830134302 71 108 1.0 4.0 0.00 0.00 0.00 100 1006.2
20260830133602 71 108 2.0 4.0 0.00 0.00 0.00 100 1006.3
20260830133429 71 108 2.0 4.0 0.00 0.00 0.00 100 1006.4
20260830132902 71 108 1.0 3.0 0.00 0.00 0.00 100 1006.3
20260830132429 71 108 0.0 3.0 0.00 0.00 0.00 100 1006.3
20260830132200 71 108 0.0 3.0 0.00 0.00 0.00 100 1006.3
20260830131501 70 108 2.0 5.0 0.00 0.00 0.00 100 1006.3
20260830131427 70 108 2.0 5.0 0.00 0.00 0.00 100 1006.3
20260830130759 70 107 2.0 5.0 0.00 0.00 0.00 100 1006.3
20260830130427 70 110 2.0 4.0 0.00 0.00 0.00 100 1006.3
20260830130059 70 110 2.0 4.0 0.00 0.00 0.00 100 1006.3
20260830125428 70 110 2.0 4.0 0.00 0.00 0.00 100 1006.3
20260830125359 70 110 2.0 4.0 0.00 0.00 0.00 100 1006.3
20260830124659 70 110 1.0 3.0 0.00 0.00 0.00 100 1006.2
20260830124427 69 110 1.0 3.0 0.00 0.00 0.00 100 1006.3
20260830124001 69 110 1.0 3.0 0.00 0.00 0.00 100 1006.4
20260830123429 69 110 0.0 3.0 0.00 0.00 0.00 100 1006.2
20260830122601 69 110 0.0 4.0 0.00 0.00 0.00 100 1006.1
20260830122429 69 110 2.0 4.0 0.00 0.00 0.00 100 1006.0
20260830121905 69 110 2.0 5.0 0.00 0.00 0.00 100 1006.0
20260830121428 69 110 3.0 5.0 0.00 0.00 0.00 100 1006.0
20260830121200 69 110 3.0 5.0 0.00 0.00 0.00 100 1006.0
20260830120503 69 83 1.0 6.0 0.00 0.00 0.00 100 1006.0
20260830120428 69 83 1.0 6.0 0.00 0.00 0.00 100 1006.0
20260830115800 69 83 0.0 7.0 0.00 0.00 0.00 100 1006.0
20260830115428 69 106 3.0 7.0 0.00 0.00 0.00 100 1005.9
20260830115059 69 106 3.0 7.0 0.00 0.00 0.00 100 1005.9
20260830114428 69 107 2.0 4.0 0.00 0.00 0.00 100 1006.0
20260830114400 69 107 2.0 4.0 0.00 0.00 0.00 100 1006.0
20260830113700 69 107 2.0 5.0 0.00 0.00 0.00 100 1006.0
20260830113428 69 107 3.0 5.0 0.00 0.00 0.00 100 1005.8
20260830112959 69 107 2.0 6.0 0.00 0.00 0.00 100 1006.0
20260830112428 69 108 1.0 6.0 0.00 0.00 0.00 100 1005.9
20260830112300 69 108 1.0 6.0 0.00 0.00 0.00 100 1005.9
20260830111600 69 56 2.0 4.0 0.00 0.00 0.00 100 1005.8
20260830111428 69 67 2.0 4.0 0.00 0.00 0.00 100 1005.8
20260830110906 69 82 2.0 3.0 0.00 0.00 0.00 100 1006.0
20260830110428 69 82 0.0 0.0 0.00 0.00 0.00 100 1006.2
20260830110159 69 82 0.0 0.0 0.00 0.00 0.00 100 1006.2
20260830105459 69 82 0.0 0.0 0.00 0.00 0.00 100 1006.4
20260830105427 69 82 0.0 0.0 0.00 0.00 0.00 100 1006.4
20260830104804 69 82 0.0 1.0 0.00 0.00 0.00 100 1006.2
20260830104428 69 82 0.0 4.0 0.00 0.00 0.00 100 1006.1
20260830104059 69 82 0.0 4.0 0.00 0.00 0.00 100 1006.1
20260830103427 69 82 2.0 4.0 0.00 0.00 0.00 100 1006.0
20260830103358 69 82 2.0 4.0 0.00 0.00 0.00 100 1006.0
20260830102701 70 82 2.0 4.0 0.00 0.00 0.00 100 1005.9
20260830102427 70 82 2.0 4.0 0.00 0.00 0.00 100 1006.1
20260830101958 70 82 3.0 4.0 0.00 0.00 0.00 100 1006.1
20260830101427 70 82 1.0 3.0 0.00 0.00 0.00 100 1006.2
20260830101258 70 82 1.0 3.0 0.00 0.00 0.00 100 1006.2
20260830100600 70 82 1.0 5.0 0.00 0.00 0.00 100 1006.3
20260830100429 69 82 3.0 6.0 0.00 0.00 0.00 100 1006.3
20260830095429 69 93 1.0 3.0 0.00 0.00 0.00 100 1006.3
20260830095200 69 93 1.0 3.0 0.00 0.00 0.00 100 1006.3
20260830094500 69 93 1.0 3.0 0.00 0.00 0.00 100 1006.3
20260830094429 69 93 1.0 3.0 0.00 0.00 0.00 100 1006.3
20260830093802 69 93 0.0 4.0 0.00 0.00 0.00 100 1006.5
20260830093428 69 93 2.0 4.0 0.00 0.00 0.00 100 1006.4
20260830093100 69 93 2.0 4.0 0.00 0.00 0.00 100 1006.4
20260830092428 69 93 1.0 2.0 0.00 0.00 0.00 100 1006.7
20260830092401 69 93 1.0 2.0 0.00 0.00 0.00 100 1006.7
20260830091659 69 93 0.0 2.0 0.00 0.00 0.00 100 1006.7
20260830091428 69 93 0.0 1.0 0.00 0.00 0.00 100 1006.6
20260830091000 69 93 0.0 2.0 0.00 0.00 0.00 100 1006.5
20260830090428 69 93 0.0 4.0 0.00 0.00 0.00 100 1006.4
20260830090301 69 93 0.0 4.0 0.00 0.00 0.00 100 1006.4
20260830085602 69 93 1.0 4.0 0.00 0.00 0.00 100 1006.2
20260830085428 69 93 1.0 3.0 0.00 0.00 0.00 100 1006.1
20260830084859 69 93 1.0 3.0 0.00 0.00 0.00 100 1006.2
20260830084428 69 93 1.0 2.0 0.00 0.00 0.00 100 1006.4
20260830084200 69 93 1.0 2.0 0.00 0.00 0.00 100 1006.4
20260830083501 69 93 1.0 5.0 0.00 0.00 0.00 100 1006.5
20260830083428 69 93 1.0 5.0 0.00 0.00 0.00 100 1006.5
20260830082802 69 92 3.0 6.0 0.00 0.00 0.00 100 1006.3
20260830082428 69 89 3.0 6.0 0.00 0.00 0.00 100 1006.3
20260830082104 69 89 3.0 6.0 0.00 0.00 0.00 100 1006.3
20260830081428 69 103 2.0 4.0 0.00 0.00 0.00 100 1006.4
20260830081402 69 103 2.0 4.0 0.00 0.00 0.00 100 1006.4
20260830080701 69 103 1.0 4.0 0.00 0.01 0.00 100 1006.5
20260830080428 69 103 0.0 1.0 0.00 0.02 0.00 100 1006.5
20260830080001 69 103 0.0 2.0 0.00 0.04 0.00 100 1006.4
20260830075428 69 103 0.0 2.0 0.00 0.06 0.00 100 1006.3
20260830075300 69 103 0.0 2.0 0.00 0.06 0.00 100 1006.3
20260830074604 69 103 0.0 3.0 0.00 0.16 0.00 100 1006.2
20260830074428 70 103 1.0 3.0 0.00 0.25 0.00 100 1006.2
20260830073900 70 103 1.0 3.0 0.00 0.46 0.00 100 1006.1
20260830073427 70 103 1.0 5.0 0.00 0.56 0.00 100 1006.3
20260830073159 70 103 1.0 5.0 0.00 0.56 0.00 100 1006.3
20260830072503 70 103 3.0 5.0 0.00 0.58 0.00 100 1006.2
20260830072427 70 103 3.0 5.0 0.00 0.58 0.00 100 1006.2
20260830071800 70 103 3.0 5.0 0.00 0.59 0.00 100 1006.2
20260830071427 70 105 2.0 6.0 0.00 0.59 0.00 100 1006.4
20260830071101 70 105 2.0 6.0 0.00 0.59 0.00 100 1006.4
20260830070428 70 111 1.0 2.0 0.00 0.71 0.00 100 1006.6
20260830070401 70 111 1.0 2.0 0.00 0.71 0.00 100 1006.6
20260830065659 70 111 0.0 2.0 0.00 0.79 0.00 100 1006.6
20260830065428 70 111 0.0 1.0 0.00 0.84 0.00 100 1006.8
20260830065000 70 111 0.0 2.0 0.00 0.98 0.00 100 1006.8
20260830064428 70 111 0.0 3.0 0.00 1.29 0.00 100 1006.9
20260830064300 70 111 0.0 3.0 0.00 1.29 0.00 100 1006.9
20260830063559 70 111 0.0 3.0 0.00 1.41 0.00 100 1006.8
20260830063428 71 111 1.0 3.0 0.00 1.51 0.00 100 1006.8
20260830062900 71 111 0.0 2.0 0.00 1.54 0.00 100 1006.7
20260830062427 71 111 0.0 2.0 0.00 1.55 0.00 100 1006.8
20260830062208 71 111 0.0 2.0 0.00 1.55 0.00 100 1006.8
20260830061500 71 111 0.0 2.0 0.00 1.55 0.00 100 1006.9
20260830061427 71 111 0.0 2.0 0.00 1.55 0.00 100 1006.9
20260830060801 71 111 0.0 1.0 0.00 1.55 0.00 99 1006.8
20260830060427 71 111 0.0 3.0 0.00 1.55 0.00 99 1006.9
20260830055429 71 111 1.0 3.0 0.00 1.55 0.00 99 1006.7
20260830055400 71 111 1.0 3.0 0.00 1.55 0.00 99 1006.7
20260830054701 71 111 1.0 5.0 0.00 1.55 0.00 99 1006.7
20260830054429 72 111 3.0 5.0 0.00 1.55 0.00 99 1006.5
20260830054000 72 107 3.0 5.0 0.00 1.55 0.00 98 1006.5
20260830053427 72 101 3.0 6.0 0.00 1.55 0.00 99 1006.7
20260830053259 72 101 3.0 6.0 0.00 1.55 0.00 99 1006.7
20260830052559 72 78 2.0 6.0 0.00 1.55 0.00 98 1006.7
20260830052427 72 88 3.0 6.0 0.00 1.55 0.00 98 1006.6
20260830051901 72 100 4.0 7.0 0.00 1.55 0.00 97 1006.5
20260830051427 72 95 3.0 7.0 0.00 1.55 0.00 98 1006.6
20260830051200 72 95 3.0 7.0 0.00 1.55 0.00 98 1006.6
20260830050459 72 101 3.0 5.0 0.00 1.55 1.55 98 1006.8
20260830050427 72 101 3.0 5.0 0.00 1.55 1.55 98 1006.8
20260830045758 72 86 2.0 3.0 0.00 1.55 1.55 97 1007.0
20260830045427 72 86 1.0 3.0 0.00 1.55 1.55 97 1007.1
20260830045105 72 86 1.0 3.0 0.00 1.55 1.55 97 1007.1
20260830044429 72 91 4.0 7.0 0.00 1.55 1.55 96 1007.2
20260830044402 72 91 4.0 7.0 0.00 1.55 1.55 96 1007.2
20260830043701 73 93 3.0 7.0 0.00 1.55 1.55 96 1007.1
20260830043429 73 92 4.0 7.0 0.00 1.55 1.55 96 1007.0
20260830043004 73 103 4.0 8.0 0.00 1.55 1.55 96 1007.1
20260830042428 73 100 4.0 8.0 0.00 1.55 1.55 96 1007.4
20260830042305 73 100 4.0 8.0 0.00 1.55 1.55 96 1007.4
20260830041601 73 88 4.0 7.0 0.00 1.55 1.55 96 1007.4
20260830041428 73 78 3.0 7.0 0.00 1.55 1.55 96 1007.5
20260830040900 73 87 3.0 5.0 0.00 1.55 1.55 96 1007.6
20260830040428 73 76 3.0 5.0 0.00 1.55 1.55 96 1007.7
20260830040204 73 76 3.0 5.0 0.00 1.55 1.55 96 1007.7
20260830035503 73 53 2.0 4.0 0.00 1.55 1.55 96 1007.8
20260830035428 73 53 2.0 4.0 0.00 1.55 1.55 96 1007.8
20260830034800 73 105 2.0 4.0 0.00 1.55 1.55 96 1007.8
20260830034428 74 106 2.0 8.0 0.00 1.55 1.55 96 1007.8